Regional Weather Roundup
Issued by NWS Upton, NY

Current Version | Previous Version | Text Only | Print | Product List | Glossary Off
Versions: 1 2 3 4 5 6 7 8 9 10 11 12 13 14 15 16 17 18 19 20 21 22 23 24 25 26 27 28 29 30 31 32 33 34 35 36 37 38 39 40 41 42 43 44 45 46 47 48 49 50
000 ASUS41 KOKX 011104 RWROKX REGIONAL WEATHER ROUNDUP NATIONAL WEATHER SERVICE NEW YORK NY 700 AM EDT TUE SEP 01 2015 NOTE: "FAIR" INDICATES FEW OR NO CLOUDS BELOW 12,000 FEET WITH NO SIGNIFICANT WEATHER AND/OR OBSTRUCTIONS TO VISIBILITY. NYZ071-072-176-178-NJZ106-104-011200- NEW YORK CITY METRO AREA CITY SKY/WX TMP DP RH WIND PRES REMARKS CENTRAL PARK CLEAR 77 65 66 CALM 30.05R LAGUARDIA APRT PTCLDY 77 67 71 VRB5 30.02R KENNEDY INTL PTCLDY 76 66 71 N3 30.03R NEWARK/LIBERTY PTCLDY 77 66 68 N5 30.02R BRNX BOT. GARD N/A 72 64 78 N1 30.03R TETERBORO CLEAR 74 64 71 CALM 30.02R $$ NYZ177-179-078>081-011200- LONG ISLAND NEW YORK CITY SKY/WX TMP DP RH WIND PRES REMARKS FARMINGDALE CLEAR 73 66 78 N5 30.03R ISLIP PTCLDY 72 67 84 CALM 30.01R SHIRLEY CLEAR 71 66 84 N3 30.02R WESTHAMPTON CLEAR 70 66 87 N7 30.03R MONTAUK POINT N/A 73 66 78 N3 30.03R $$ NYZ052-065-067-011200- HUDSON VALLEY CITY SKY/WX TMP DP RH WIND PRES REMARKS WHITE PLAINS CLEAR 71 65 81 N8 30.04R NEWBURGH CLEAR 64 64 100 CALM 30.07R MONTGOMERY FOG 62 61 96 CALM 30.06R VSB 1 POUGHKEEPSIE CLEAR 63 61 93 CALM 30.05R FOG ALBANY PTCLDY 62 60 93 CALM 30.06R $$ NJZ001-105-106-008-010-013-015-019>022-104-011200- NEW JERSEY CITY SKY/WX TMP DP RH WIND PRES REMARKS NEWARK/LIBERTY PTCLDY 77 66 68 N5 30.02R TETERBORO CLEAR 74 64 71 CALM 30.02R CALDWELL CLEAR 68 65 90 CALM 30.04R FOG MORRISTOWN CLOUDY 70 68 94 CALM 30.04R SOMERVILLE CLEAR 66 64 93 MISG 30.02R FOG SUSSEX CLEAR 61 59 93 CALM 30.07R FOG ANDOVER N/A 63 62 97 CALM 30.07R TRENTON CLEAR 69 67 93 CALM 30.03R FOG MILLVILLE FOG 68 67 96 CALM 30.03S VSB 3/4 ATLANTIC CITY CLEAR 71 69 93 W5 30.03R WRIGHTSTOWN CLEAR 69 69 99 W3 30.01R TOMS RIVER CLEAR 68 66 94 CALM 30.03R BELMAR CLEAR 70 63 78 NW3 30.03R $$ PAZ047>061-062-071-011200- EASTERN PENNSYLVANIA CITY SKY/WX TMP DP RH WIND PRES REMARKS PHILADELPHIA CLEAR 75 67 76 W3 30.03R ALLENTOWN CLEAR 66 64 93 CALM 30.06R SCRANTON PTCLDY 65 62 90 CALM 30.09R FOG $$ CTZ002-004>006-009-010-012-RIZ004-006-007-MAZ004-011-015-011200- SOUTHERN NEW ENGLAND IN CT CITY SKY/WX TMP DP RH WIND PRES REMARKS BRADLEY INTL PTCLDY 64 61 90 NE5 30.04R HARTFORD CLEAR 67 64 90 CALM 30.04R DANBURY CLEAR 63 59 87 SW5 30.07R FOG WTRBRY/OXFORD NOT AVBL BRIDGEPORT CLEAR 72 64 76 N7 30.02R MERIDEN CLEAR 66 63 90 CALM 30.03R NEW HAVEN CLEAR 69 64 84 N6 30.03R CHESTER NOT AVBL GROTON CLEAR 69 65 86 N5 30.01R WILLIMANTIC CLEAR 62 59 90 CALM 30.04R FOG IN RI CITY SKY/WX TMP DP RH WIND PRES REMARKS PROVIDENCE PTCLDY 69 63 81 N7 30.03R BLOCK ISLAND CLEAR 70 64 83 N5 30.02R WESTERLY CLEAR 68 63 84 CALM 30.02R IN MA CITY SKY/WX TMP DP RH WIND PRES REMARKS BOSTON PTCLDY 70 61 73 NW9 30.02R WORCESTER CLEAR 67 57 70 N9 30.06R WESTFIELD CLEAR 63 60 90 CALM 30.05R PROVINCETOWN N/A 70 63 78 N7 30.02R NANTUCKET CLEAR 72 67 84 N7 30.00R $$ ANZ330-335-338-340-345-350-353-355-011200- COASTAL MARINE OBSERVATIONS STATION/POSITION TIME SKY/WX TEMP WIND PRES VSBY WAVE AIR SEA DIR/SP/G HT/PER (UTC) (F) (DEG/KT/KT) (MB) (MI) (FT/S) NY HARB ENTRANCE 0950 76 76 310/ 8/ 8 1015.5 2/ 9 4S FIRE IS NOT AVBL 20S FIRE ISLAND 0950 74 74 310/ 6/ 6 1015.6 3/ 9 GREAT SOUTH BAY 1015 74 78 340/ 6/ 8 N/A 23SW MTP 1050 72 72 330/ 8/ 8 1015.7 3/ 6 HUDSON CANYON NOT AVBL KINGS POINT 1000 76 75 40/ 2/ 3 1015.4 EXECUTION ROCKS 1000 74 360/ 4/ 6 N/A CENTRAL LI SOUND NOT AVBL EASTERN LI SOUND 1000 72 70 360/ 4/ 6 N/A ROBBINS REEF 1000 77 350/ 5/ 6 1015.1 $$ >>>>>>>>>>>>>>>>>>>>>>>>>>>> KEY <<<<<<<<<<<<<<<<<<<<<<<<<<< > < > SKY/WX - SKY CONDITION/PRESENT WEATHER < > TMP - TEMPERATURE IN FAHRENHEIT < > DP - DEWPOINT IN FAHRENHEIT < > RH - RELATIVE HUMIDITY IN PERCENT < > WIND - DIRECTION AND SPEED IN MPH < > PRES - MEAN SEA LEVEL PRESSURE IN INCHES OF HG < > WCI - WIND CHILL INDEX < > VSB - VISIBILITY IN MILES < > HX - HEAT INDEX < > TC - TEMPERATURE IN CELSIUS < > VRB - VARIABLE WIND DIRECTION < > < >>>>>>>>>>>>>>>>>>>>>>>>>>>> KEY <<<<<<<<<<<<<<<<<<<<<<<<<<<

USA.gov is the U.S. government's official web portal to all federal, state and local government web resources and services.